Regional Weather Roundup
Issued by NWS

Home | Current Version | Previous Version | Text Only | Print | Product List | Glossary On
Versions: 1 2 3 4 5 6 7 8 9 10 11 12 13 14 15 16 17 18 19 20 21 22 23 24 25 26 27 28 29 30 31 32 33 34 35 36 37 38 39 40 41 42 43 44 45 46 47 48 49 50
000
ASUS43 KDMX 251804
RWRIA

WEATHER ROUNDUP FOR IOWA
NATIONAL WEATHER SERVICE DES MOINES IA
  ISSUED BY NWS QUAD CITIES IA IL
1200 PM CST SUN JAN 25 2015

NOTE: "FAIR" INDICATES FEW OR NO CLOUDS BELOW 12,000 FEET WITH NO
SIGNIFICANT WEATHER AND/OR OBSTRUCTIONS TO VISIBILITY.

* - THESE STATIONS ARE NOT NWS STATIONS...THUS NOT UNDER NWS
QUALITY CONTROL.  THEY ALSO DO NOT REPORT WEATHER SUCH
AS PRECIPITATION OR FOG.

IAZ001>003-012>014-020>022-031>034-043>046-251900-
   NORTHWEST IOWA

CITY           SKY/WX    TMP DP  RH WIND       PRES   REMARKS
CARROLL *      CLOUDY    34  32  93 N23       29.94S WCI  22
CHEROKEE *     CLOUDY    33  31  94 N10       29.99R WCI  25
6HR MIN TEMP:  33; 6HR MAX TEMP:  34;

DENNISON *     CLOUDY    36  36 100 N10G16    29.94S WCI  28
LE MARS *      CLOUDY    36  34  93 N10       30.01R WCI  28
SIOUX CITY     CLOUDY    38  34  85 N15       30.00R WCI  29
6HR MIN TEMP:  35; 6HR MAX TEMP:  38; 6HR PCP: TRACE;

SPENCER        CLOUDY    32  28  85 N12       29.99R WCI  23
6HR MIN TEMP:  31; 6HR MAX TEMP:  34; 6HR PCP: TRACE;

$$

IAZ055>058-069>071-079>083-090>094-251900-
   SOUTHWEST IOWA

CITY           SKY/WX    TMP DP  RH WIND       PRES   REMARKS
ATLANTIC *     CLOUDY    36  32  87 N17G28    29.93R WCI  25
AUDUBON *      SUNNY     34  30  86 N15       29.95R WCI  24
CLARINDA *     CLOUDY    37  34  87 N23       29.92R WCI  26
COUNCIL BLFS * CLOUDY    37  36  93 N17G26    29.94S WCI  28
CRESTON *      CLOUDY    34  34 100 N20G26    29.87R WCI  22
HARLAN *       CLOUDY    36  36 100 N18G24    29.97S WCI  25
LAMONI         LGT SNOW  34  32  92 N24G31    29.83R FOG     WCI  21
6HR MIN TEMP:  34; 6HR MAX TEMP:  40; 6HR PCP:  0.05;

$$

IAZ047>049-059>061-072>074-084-251900-
   CENTRAL IOWA

CITY           SKY/WX    TMP DP  RH WIND       PRES   REMARKS
AMES           CLOUDY    33  29  85 N21       29.93R WCI  21
6HR MIN TEMP:  32; 6HR MAX TEMP:  35; 6HR PCP:  0.10;

ANKENY *       CLOUDY    34  30  86 N14G22    29.91R WCI  24
BOONE *        CLOUDY    32  32 100 NE18G25   29.91R WCI  20
CHARITON *     LGT RAIN  34  32  93 N21       29.84R WCI  22
DES MOINES     CLOUDY    34  30  85 NE16      29.90R WCI  24
6HR MIN TEMP:  34; 6HR MAX TEMP:  38; 6HR PCP:  0.10;

GRINNELL *     CLOUDY    29  26  89 NE18G24   29.86S WCI  17
6HR MIN TEMP:  29; 6HR MAX TEMP:  35; 6HR PCP:  0.01;

MARSHALLTOWN   CLOUDY    30  25  81 NE18      29.91R WCI  18
6HR MIN TEMP:  30; 6HR MAX TEMP:  35; 6HR PCP:  0.04;

PERRY *          N/A     35  33  94 N18       29.93R WCI  24
6HR MIN TEMP:  34; 6HR MAX TEMP:  35;

$$

IAZ004>006-015-016-023>025-035-036-251900-
   NORTH CENTRAL IOWA

CITY           SKY/WX    TMP DP  RH WIND       PRES   REMARKS
ALGONA *       CLOUDY    30  30 100 NE13G18   29.97S WCI  20
CLARION *      CLOUDY    32  32 100 NE15      29.95R WCI  22
ESTHERVILLE    CLOUDY    29  26  89 N12       29.97S WCI  19
6HR MIN TEMP:  28; 6HR MAX TEMP:  32; 6HR PCP: TRACE;

FORT DODGE *   CLOUDY    32  28  86 N10       29.96R WCI  24
6HR MIN TEMP:  32; 6HR MAX TEMP:  34;

MASON CITY     CLOUDY    30  27  88 NE14      29.96R WCI  19
6HR MIN TEMP:  29; 6HR MAX TEMP:  33; 6HR PCP: TRACE;

WEBSTER CITY * CLOUDY    32  32 100 N15       29.93R WCI  22
IOWA FALLS *   CLOUDY    31  27  84 N10       29.94R WCI  23
6HR MIN TEMP:  31; 6HR MAX TEMP:  33; 6HR PCP:  0.01;

$$

IAZ007>011-017>019-026>030-037>042-050>054-066-251900-
   NORTHEAST IOWA

CITY           SKY/WX    TMP DP  RH WIND       PRES   REMARKS
CEDAR RAPIDS   MIX PCPN  28  24  85 NE21      29.85R WCI  15
6HR MIN TEMP:  28; 6HR MAX TEMP:  34; 6HR PCP:  0.03;

CHARLES CITY * CLOUDY    30  27  86 NE15      29.95R WCI  19
CLINTON *      CLOUDY    28  25  86 NE26      29.86R WCI  13
6HR MIN TEMP:  28; 6HR MAX TEMP:  34;

DECORAH *      CLOUDY    27  19  74 N12       29.94R WCI  16
DUBUQUE        CLOUDY    25  19  78 NE23G31   29.86S WCI  10
6HR MIN TEMP:  24; 6HR MAX TEMP:  31; 6HR PCP:  0.06;

MONTICELLO *   PTSUNNY   28  23  80 NE16G25   29.87S WCI  17
WATERLOO       CLOUDY    29  24  82 N17       29.92R WCI  17
6HR MIN TEMP:  28; 6HR MAX TEMP:  33; 6HR PCP:  0.08;

$$

IAZ064-065-067-068-078-251900-
   EAST CENTRAL IOWA

CITY           SKY/WX    TMP DP  RH WIND       PRES   REMARKS
DAVENPORT      LGT SNOW  28  24  85 NE25G33   29.82R FOG     WCI  13
6HR MIN TEMP:  28; 6HR MAX TEMP:  33; 6HR PCP:  0.04;

IOWA CITY      LGT SNOW  29  25  85 N18G24    29.86R FOG     WCI  16
6HR MIN TEMP:  29; 6HR MAX TEMP:  35; 6HR PCP:  0.10;

MT. PLEASANT * CLOUDY    31  30  96 N20       29.78R WCI  19
6HR MIN TEMP:  31; 6HR MAX TEMP:  37; 6HR PCP:  0.02;

MUSCATINE *    LGT SNOW  32  28  86 NE20G32   29.82R WCI  20
QUAD CITIES    LGT SNOW  30  27  88 NE14G21   29.80R FOG     WCI  19
6HR MIN TEMP:  30; 6HR MAX TEMP:  34; 6HR PCP:  0.15;

$$

IAZ062-063-075>077-085>089-095>099-251900-
   SOUTHEAST IOWA

CITY           SKY/WX    TMP DP  RH WIND       PRES   REMARKS
BURLINGTON     LGT SNOW  32  31  96 NE21G28   29.75R FOG     WCI  20
6HR MIN TEMP:  32; 6HR MAX TEMP:  40; 6HR PCP:  0.22;

FAIRFIELD *    LGT RAIN  32  28  86 NE25G32   29.81R WCI  19
FORT MADISON * LGT SNOW  34  32  93 NE16G28   29.75R WCI  23
KEOKUK *       LGT SNOW  34  32  93 NE16G25   29.72R WCI  23
OTTUMWA        FLURRIES  31  30  96 NE20G30   29.82R WCI  19
6HR MIN TEMP:  31; 6HR MAX TEMP:  39; 6HR PCP:  0.05;

WASHINGTON *   LGT SNOW  30  30 100 NE18G31   29.81R WCI  18
$$

ABBREVIATIONS USED IN REMARKS
   TC - TEMPERATURES IN CELSIUS
  WCI - WIND CHILL INDEX
   HX - HEAT INDEX
  VSB - VISIBILITY
$$


USA.gov is the U.S. government's official web portal to all federal, state and local government web resources and services.